Oxford, CT

6:17 AM EDT on July 27, 2017 (GMT -0400)
Waterbury-Oxford

Weather History for KOXC - April, 2013

Change the Weather History Date:

Monday, April 1, 2013

  Actual Average Record
Temperature  
Mean Temperature 45 °F -  
Max Temperature 57 °F 48 °F 69 °F (2016)
Min Temperature 33 °F 31 °F 23 °F (2003)
Degree Days  
Heating Degree Days 20    
Moisture  
Dew Point 33 °F    
Average Humidity 70    
Maximum Humidity 93    
Minimum Humidity 35    
Precipitation  
Precipitation 0.00 in - - ()
Sea Level Pressure  
Sea Level Pressure 29.70 in    
Wind  
Wind Speed 6 mph (WNW)    
Max Wind Speed 17 mph    
Max Gust Speed 29 mph    
Visibility 8 miles    
Events Rain    
Averages and records for this station are not official NWS values.
T = Trace of Precipitation, MM = Missing Value Source: NWS Daily Summary

Daily Weather History Graph

Daily Weather History Graph

Search for Another Location

Airport or City:

Trip Planner

Search our weather history database for the weather conditions in past years. The results will help you decide how hot, cold, wet, or windy it might be!

Date:

Astronomy

Apr. 01, 2013 Rise Set
Actual Time 6:35 AM EDT 7:18 PM EDT
Civil Twilight 6:07 AM EDT 7:46 PM EDT
Nautical Twilight 5:34 AM EDT 8:19 PM EDT
Astronomical Twilight 5:00 AM EDT 8:53 PM EDT
Moon 12:26 AM EDT (4/1) 10:15 AM EDT (4/1)
Length of Visible Light 13h 38m
Length of Day
12h 42m
Waning Gibbous, 67% of the Moon is Illuminated
Apr 1
Waning Gibbous
Apr 3
Last Quarter
Apr 10
New
Apr 18
First Quarter
Apr 25
Full

Hourly Weather History & Observations

Time (EDT) Temp. Windchill Dew Point Humidity Pressure Visibility Wind Dir Wind Speed Gust Speed Precip Events Conditions
12:15 AM 42.8 °F 41.1 °F 39.2 °F 87% 29.67 in 3.0 mi NW 3.5 mph - N/A   Overcast
12:35 AM 42.8 °F 40.1 °F 39.2 °F 87% 29.66 in 1.8 mi NNW 4.6 mph - N/A   Overcast
1:15 AM 42.8 °F 39.3 °F 39.2 °F 87% 29.64 in 5.0 mi North 5.8 mph - N/A   Overcast
1:35 AM 42.8 °F 40.1 °F 39.2 °F 87% 29.65 in 5.0 mi WNW 4.6 mph - N/A   Overcast
1:55 AM 42.8 °F 39.3 °F 39.2 °F 87% 29.64 in 5.0 mi NW 5.8 mph - N/A   Overcast
2:16 AM 42.8 °F 41.1 °F 39.2 °F 87% 29.65 in 4.0 mi WNW 3.5 mph - N/A   Overcast
2:35 AM 42.8 °F - 39.2 °F 87% 29.65 in 5.0 mi Calm Calm - N/A   Overcast
2:55 AM 42.8 °F 39.3 °F 39.2 °F 87% 29.65 in 7.0 mi WNW 5.8 mph - N/A   Overcast
3:15 AM 42.8 °F 40.1 °F 39.2 °F 87% 29.65 in 10.0 mi WNW 4.6 mph - N/A   Overcast
3:35 AM 42.8 °F 40.1 °F 37.4 °F 81% 29.66 in 8.0 mi WSW 4.6 mph - N/A   Overcast
3:55 AM 42.8 °F 41.1 °F 39.2 °F 87% 29.66 in 5.0 mi WSW 3.5 mph - N/A   Overcast
4:15 AM 42.8 °F 39.3 °F 39.2 °F 87% 29.67 in 5.0 mi WSW 5.8 mph - N/A   Overcast
4:35 AM 42.8 °F 39.3 °F 39.2 °F 87% 29.67 in 5.0 mi WSW 5.8 mph - N/A   Overcast
4:55 AM 42.8 °F 40.1 °F 39.2 °F 87% 29.68 in 6.0 mi West 4.6 mph - N/A   Overcast
5:15 AM 42.8 °F 38.6 °F 39.2 °F 87% 29.68 in 8.0 mi West 6.9 mph - N/A   Overcast
5:35 AM 42.8 °F 40.1 °F 39.2 °F 87% 29.68 in 8.0 mi West 4.6 mph - N/A   Overcast
6:15 AM 42.8 °F 38.6 °F 39.2 °F 87% 29.69 in 7.0 mi West 6.9 mph - N/A   Overcast
6:45 AM 42.8 °F 38.6 °F 39.2 °F 87% 29.69 in 7.0 mi West 6.9 mph - N/A   Overcast
7:15 AM 42.8 °F 40.1 °F 39.2 °F 87% 29.69 in 7.0 mi West 4.6 mph - N/A   Partly Cloudy
8:45 AM 46.4 °F 42.4 °F 41.0 °F 81% 29.68 in 10.0 mi West 8.1 mph 17.3 mph N/A   Clear
10:45 AM 53.6 °F - 42.8 °F 67% 29.65 in 10.0 mi West 6.9 mph 17.3 mph N/A   Clear
11:45 AM 55.4 °F - 41.0 °F 58% 29.64 in 10.0 mi West 10.4 mph 20.7 mph N/A   Scattered Clouds
12:45 PM 57.2 °F - 39.2 °F 51% 29.63 in 10.0 mi West 12.7 mph 23.0 mph N/A   Scattered Clouds
1:45 PM 57.2 °F - 39.2 °F 51% 29.61 in 10.0 mi WSW 11.5 mph 23.0 mph N/A   Mostly Cloudy
2:25 PM 55.4 °F - 37.4 °F 51% 29.60 in 2.0 mi WNW 17.3 mph 28.8 mph N/A Rain Rain
3:45 PM 48.2 °F - 41.0 °F 76% 29.64 in 10.0 mi WNW 11.5 mph 23.0 mph N/A   Overcast
4:45 PM 46.4 °F 39.8 °F 35.6 °F 66% 29.68 in 10.0 mi NW 16.1 mph 28.8 mph N/A Rain Light Rain
6:45 PM 42.8 °F 36.6 °F 28.4 °F 57% 29.71 in 10.0 mi North 11.5 mph - N/A   Mostly Cloudy
7:45 PM 39.2 °F 32.0 °F 37.4 °F 93% 29.75 in 10.0 mi North 11.5 mph - N/A   Clear
9:35 PM 37.4 °F 31.4 °F 12.2 °F 36% 29.82 in 10.0 mi NNW 8.1 mph - N/A   Clear
9:55 PM 35.6 °F 28.0 °F 12.2 °F 38% 29.83 in 10.0 mi NNW 10.4 mph 18.4 mph N/A   Clear
10:15 PM 35.6 °F 28.0 °F 12.2 °F 38% 29.83 in 10.0 mi NW 10.4 mph 25.3 mph N/A   Clear
10:35 PM 35.6 °F 27.1 °F 10.4 °F 35% 29.84 in 10.0 mi WNW 12.7 mph 19.6 mph N/A   Clear
10:55 PM 35.6 °F 28.0 °F 10.4 °F 35% 29.85 in 10.0 mi NW 10.4 mph 18.4 mph N/A   Clear
11:15 PM 33.8 °F 26.4 °F 10.4 °F 38% 29.85 in 10.0 mi WNW 9.2 mph 16.1 mph N/A   Clear
11:35 PM 33.8 °F 24.8 °F 10.4 °F 38% 29.85 in 10.0 mi NW 12.7 mph 19.6 mph N/A   Clear
11:55 PM 33.8 °F 25.3 °F 10.4 °F 38% 29.86 in 10.0 mi NW 11.5 mph 21.9 mph N/A   Clear